User: anonymous   Login
Location: Unspecified
(0.0000°N, 0.0000°E)
Time: 07:59:39
(UTC+00:00)
Language:

Tiros 6 - Orbit

View from above orbital plane
View from above orbital plane
View from above satellite
View from above satellite

Ground track
Ground track

The orbit data is extracted from the following two-line orbital elements,

1 00397U 62047A   18263.22346925 -.00000090  00000-0  13428-4 0  9993
2 00397  58.3050 285.2840 0006750 169.3608 190.7581 14.88317083 12201
Epoch (UTC): 20 September 2018 05:21:47
Eccentricity: 0.0006750
inclination: 58.3050°
perigee height: 598 km
apogee height: 608 km
right ascension of ascending node: 285.2840°
argument of perigee: 169.3608°
revolutions per day: 14.88317083
mean anomaly at epoch: 190.7581°
orbit number at epoch: 1220

The dashed part of the orbit path shows where the satellite is in the earth's shadow,  

DLR